Tracking 19634 objects as of 21-May-2019
HD Live streaming from Space Station
objects crossing your sky now

THORAD DELTA 1 DEB

Track THORAD DELTA 1 DEB now!
10-day predictions


NORAD ID: 42602
Int'l Code: 1974-089FT
Perigee: 1,383.3 km
Apogee: 1,903.8 km
Inclination: 101.4 °
Period: 119.0 minutes
Semi major axis: 8014 km
RCS: Unknown
Launch date: November 15, 1974
Source: United States (US)
Launch site: AIR FORCE WESTERN TEST RANGE (AFWTR)

Note: This is SATELLITE DEBRIS
aabbcc
Your satellite tracking list
Your tracking list is empty




NASA's NSSDC Master Catalog

Two Line Element Set (TLE):
1 42602U 74089FT  19132.39900189  .00000062  00000-0  91681-3 0  9993
2 42602 101.4174 340.0263 0324772 106.8067 256.8869 12.09996554656376
Source of the keplerian elements: AFSPC